RA1AMW-14 Weather Reports


time (UTC)temp
F
wind
direction
speed
knots
gust
knots
rain 1hr
in
rain 24hr
in
rain mn
in
humidity
%
barometer
mb
20260506201002 38 181 0.0 1.7 0.00 0.00 6.14 10 998.7
20260506195003 39 181 0.9 1.7 0.00 0.00 6.14 10 998.6
20260506194003 39 254 0.0 1.7 0.00 0.00 6.14 10 998.6
20260506193003 40 253 0.0 2.6 0.00 0.00 6.14 10 998.6
20260506192003 40 254 1.7 3.5 0.00 0.00 6.14 10 998.7
20260506191003 40 252 0.9 2.6 0.00 0.00 6.14 10 998.6
20260506190004 41 274 0.0 1.7 0.00 0.00 6.14 10 998.6
20260506184003 42 269 0.9 3.5 0.00 0.00 6.14 10 998.7
20260506183007 43 255 1.7 3.5 0.00 0.00 6.14 10 998.8
20260506182003 43 245 0.9 2.6 0.00 0.00 6.14 10 998.5
20260506175002 47 245 1.7 6.1 0.00 0.00 6.14 10 998.4
20260506173004 50 262 1.7 9.6 0.00 0.00 6.14 10 998.4
20260506172003 50 281 3.5 7.8 0.00 0.00 6.14 10 998.1
20260506171003 51 272 3.5 7.8 0.00 0.00 6.14 10 998.1
20260506170004 51 269 2.6 7.8 0.00 0.00 6.14 10 998.2
20260506165003 53 274 2.6 7.0 0.00 0.00 6.14 10 998.3
20260506164003 53 279 2.6 8.7 0.00 0.00 6.14 10 998.0
20260506163004 54 275 4.3 9.6 0.00 0.00 6.14 10 997.9
20260506162003 53 294 4.3 10.4 0.00 0.00 6.14 10 997.8
20260506155002 58 295 4.3 10.4 0.00 0.00 6.14 10 997.7
20260506154003 60 276 3.5 12.2 0.00 0.00 6.14 10 997.6
20260506153003 62 270 4.3 9.6 0.00 0.00 6.14 10 997.6
20260506152003 62 268 4.3 12.2 0.00 0.00 6.14 10 997.6
20260506151003 61 262 2.6 13.0 0.00 0.00 6.14 10 997.4
20260506150004 61 273 7.0 12.2 0.00 0.00 6.14 10 997.5